This is the latest recevied weather packets stored in our database for station/object DL1BWU. If no packets are shown the sender has not sent any weather packets the latest 10 day(s).
| Time | Temp. | Humidity | Pressure | Rain* | Wind** | Luminosity | Snow |
|---|---|---|---|---|---|---|---|
| 1777280732 | 14.44° C | 42% | 1023.7 hPa | 0 mm | - | - | - |
| 1777280132 | 14.44° C | 43% | 1023.9 hPa | 0 mm | - | - | - |
| 1777279532 | 13.89° C | 44% | 1023.9 hPa | 0 mm | - | - | - |
| 1777278932 | 13.89° C | 44% | 1024 hPa | 0 mm | - | - | - |
| 1777278332 | 13.33° C | 45% | 1024.1 hPa | 0 mm | - | - | - |
| 1777277732 | 12.78° C | 45% | 1024.3 hPa | 0 mm | - | - | - |
| 1777277132 | 12.78° C | 46% | 1024.3 hPa | 0 mm | - | - | - |
| 1777276532 | 12.22° C | 47% | 1024.2 hPa | 0 mm | - | - | - |
| 1777275932 | 11.67° C | 48% | 1024.3 hPa | 0 mm | - | - | - |
| 1777275332 | 11.11° C | 48% | 1024.3 hPa | 0 mm | - | - | - |
| 1777274732 | 10.56° C | 49% | 1024.3 hPa | 0 mm | - | - | - |
| 1777274132 | 10° C | 51% | 1024.5 hPa | 0 mm | - | - | - |
| 1777273532 | 9.44° C | 52% | 1024.4 hPa | 0 mm | - | - | - |
| 1777272932 | 8.33° C | 54% | 1024.5 hPa | 0 mm | - | - | - |
| 1777272332 | 7.78° C | 55% | 1024.4 hPa | 0 mm | - | - | - |
| 1777271732 | 7.22° C | 57% | 1024.5 hPa | 0 mm | - | - | - |
| 1777271133 | 6.11° C | 61% | 1024.5 hPa | 0 mm | - | - | - |
| 1777270532 | 5.56° C | 62% | 1024.4 hPa | 0 mm | - | - | - |
| 1777269933 | 5° C | 64% | 1024.4 hPa | 0 mm | - | - | - |
| 1777269333 | 3.89° C | 64% | 1024.5 hPa | 0 mm | - | - | - |
| 1777268733 | 3.89° C | 65% | 1024.5 hPa | 0 mm | - | - | - |
| 1777268133 | 2.78° C | 65% | 1024.4 hPa | 0 mm | - | - | - |
| 1777267533 | 2.22° C | 65% | 1024.6 hPa | 0 mm | - | - | - |
| 1777266933 | 2.22° C | 65% | 1024.6 hPa | 0 mm | - | - | - |
| 1777266333 | 1.67° C | 65% | 1024.4 hPa | 0 mm | - | - | - |
* Rain latest hour (hover to see other rain measurements)
** Current wind speed in m/s (hover to see current wind gust speed)